#timestamp,LO_Frequency,Hit,StdDev 
1683064815.3,286047002.9,N
1683064835.2,286047006.7,Y
1683064855.9,286047001.6,P
1683064875.7,286047002.0,N
1683064895.6,286047004.3,P
1683064915.4,286047001.8,N
1683064935.2,286047001.3,N
1683064955.1,286047003.5,Y
1683064956.0,286047003.5,P
1683064975.8,286047002.3,P
1683064995.7,286047002.4,P
1683065015.5,286047002.2,Y
1683065035.3,286047002.8,P
1683065055.2,286046999.8,P
1683065075.0,286047001.4,N
1683065075.9,286047003.7,Y
1683065095.8,286046999.9,P
1683065115.6,286047002.1,N
1683065135.4,286047002.5,N
1683065155.3,286047001.0,N
1683065175.1,286047000.6,N
1683065195.9,286047000.9,N
1683065215.7,286047000.2,N
1683065235.5,286047000.1,N
1683065255.4,286047004.0,Y
1683065275.2,286047003.8,P
1683065295.0,286047002.9,N
1683065296.0,286047002.9,N
1683065315.8,286047003.6,Y
1683065335.6,286047002.5,P
1683065355.5,286047004.0,P
1683065375.3,286047002.1,P
1683065395.1,286047001.1,N
1683065415.9,286046998.8,N
1683065435.7,286046998.5,N
1683065455.6,286047004.0,N
1683065475.4,286047003.9,N
1683065495.2,286047004.0,N
1683065515.1,286047003.6,N
1683065516.0,286047003.6,N
1683065535.8,286047007.6,Y
1683065555.6,286047003.7,P
1683065575.5,286047002.2,P
1683065595.3,286047002.4,P
1683065615.2,286047000.0,N
1683065635.9,286046999.7,N
1683065655.7,286046998.2,N
1683065675.6,286047000.9,N
1683065695.4,286046998.9,N
1683065715.2,286046997.2,N
1683065735.1,286046997.3,N
1683065736.0,286046997.3,N
1683065755.8,286046999.2,N
1683065775.7,286046996.8,N
1683065795.5,286046997.5,N
1683065815.3,286046995.0,N
1683065835.2,286046997.8,N
1683065855.0,286046997.3,N
1683065855.9,286046997.5,N
1683065875.7,286046994.2,N
1683065895.6,286046991.0,Y
1683065915.4,286046990.3,P
1683065935.3,286046990.1,N
1683065955.1,286046993.2,N
1683065956.0,286046993.2,N
1683065975.8,286046990.1,Y
1683065995.7,286047000.4,P
1683066015.5,286046998.4,N
1683066035.4,286046998.8,N
1683066055.2,286046998.3,N
1683066075.0,286047001.1,N
1683066075.9,286046999.9,N
1683066095.8,286046999.7,N
1683066115.6,286046999.9,N
1683066135.4,286047000.7,N
1683066155.3,286046999.0,N
1683066175.1,286046999.2,N
1683066195.9,286046999.4,N
1683066215.7,286046996.7,N
1683066235.5,286046995.2,N
1683066255.4,286046995.2,N
1683066275.2,286046997.3,N
1683066295.0,286046997.4,N
1683066295.9,286046996.4,N
1683066315.8,286046995.9,N
1683066335.6,286046996.3,N
1683066355.5,286046996.4,N
1683066375.3,286046994.6,N
1683066395.1,286046993.6,Y
1683066415.9,286046996.1,P
1683066435.7,286046993.9,P
1683066455.5,286046991.9,P
1683066475.4,286046995.1,N
1683066495.2,286046997.7,N
1683066515.1,286046997.7,N
1683066516.0,286046997.7,N
1683066535.8,286046998.0,N
1683066555.6,286046997.7,N
1683066575.5,286046996.7,N
1683066595.3,286046995.5,N
1683066615.2,286046994.1,Y
1683066635.9,286046999.5,P
1683066655.7,286046997.7,N
1683066675.6,286046995.3,P
1683066695.4,286046995.3,Y
1683066715.2,286046996.5,P
1683066735.1,286046999.6,N
1683066736.0,286046999.6,N
1683066755.8,286046995.0,Y
1683066775.7,286046996.6,P
1683066795.5,286046999.4,N
1683066815.3,286046996.5,P
1683066835.2,286046995.0,Y
1683066855.0,286046998.7,P
1683066855.9,286046999.5,N
1683066875.7,286046999.1,N
1683066895.6,286046998.1,N
1683066915.4,286046998.5,N
1683066935.3,286046996.6,Y
1683066955.1,286046998.1,P
1683066975.8,286046999.7,N
1683066995.7,286047003.6,P
1683067015.5,286047003.0,N
1683067035.3,286047005.4,N
1683067055.2,286047006.1,N
1683067075.0,286047009.2,Y
1683067075.9,286047008.1,P
1683067095.8,286047009.1,P
1683067115.6,286047008.2,N
1683067135.4,286047009.8,Y
1683067155.3,286047003.8,P
1683067175.1,286047002.0,N
1683067195.9,286047003.4,N
1683067215.7,286047009.1,Y
1683067235.5,286047003.2,P
1683067255.4,286047001.5,P
1683067275.2,286047001.3,N
1683067295.0,286047001.6,N
1683067295.9,286047001.6,N
1683067315.8,286047003.9,Y
1683067335.6,286047000.1,P
1683067355.5,286047001.9,N
1683067375.3,286047001.9,N
1683067395.1,286047004.2,Y
1683067415.9,286047002.0,P
1683067435.7,286047001.6,P
1683067455.6,286047002.5,P
1683067475.4,286047002.2,Y
1683067495.2,286047000.3,P
1683067515.1,286047002.1,N
1683067516.0,286047002.1,N
1683067535.8,286047001.9,N
1683067555.6,286047002.3,Y
1683067575.5,286046998.1,P
1683067595.3,286047000.2,N
1683067615.2,286047000.9,N
1683067635.9,286047001.2,N
1683067655.7,286047000.8,N
1683067675.6,286047002.4,N
1683067695.4,286047002.5,N
1683067715.2,286047002.5,N
1683067735.1,286046999.8,N
1683067736.0,286046999.8,N
1683067755.8,286047001.9,N
1683067775.7,286047004.0,Y
1683067795.5,286047001.9,P
1683067815.3,286047002.7,P
1683067835.2,286047003.9,P
1683067855.0,286047004.2,Y
1683067855.9,286047004.2,P
1683067875.8,286047002.3,N
1683067895.6,286047000.6,N
1683067915.4,286047000.8,N
1683067935.3,286047000.9,N
1683067955.1,286046999.7,N
1683067956.0,286046999.7,N
1683067975.8,286047002.7,N
1683067995.7,286046999.9,N
1683068015.5,286047000.1,N
1683068035.3,286046999.9,N
1683068055.2,286047000.5,N
1683068075.0,286047000.3,N
1683068075.9,286046999.9,N
1683068095.8,286047000.1,N
1683068115.6,286047000.0,N
1683068135.4,286047002.3,N
1683068155.3,286047001.5,N
1683068175.1,286047003.8,Y
1683068195.9,286047001.7,P
1683068215.7,286047002.0,P
1683068235.5,286047005.9,P
1683068255.4,286047005.5,N
1683068275.2,286047004.6,N
1683068295.0,286047006.5,Y
1683068295.9,286047009.0,P
1683068315.8,286047005.6,N
1683068335.6,286047005.9,N
1683068355.5,286047007.2,Y
1683068375.3,286046999.3,P
1683068395.1,286046998.3,N
